• In Uzbekistan
  • List of Countries
  • For 7 days
  • Water Temperature
  • Satellite Maps
  • Weather Map
  • Weather Widgets
  • user-avatar
    Login

    Hourly Weather Manika

    Today, 20 November, Monday

    Time Temperature Precipitation Wind Pressure Humidity
    00:00 +20°C° 0 mm 1 mps 681 mmHg 90%
    01:00 +20°C° 0 mm 1 mps 680 mmHg 91%
    02:00 +20°C° 0 mm 1 mps 680 mmHg 92%
    03:00 +19°C° 0 mm 1 mps 680 mmHg 93%
    04:00 +19°C° 0 mm 1 mps 680 mmHg 93%
    05:00 +18°C° 0 mm 1 mps 680 mmHg 94%
    06:00 +21°C° 0 mm 1 mps 680 mmHg 83%
    07:00 +23°C° 0 mm 1 mps 681 mmHg 71%
    08:00 +25°C° 0 mm 1 mps 682 mmHg 59%
    09:00 +27°C° 0 mm 1 mps 682 mmHg 49%
    10:00 +29°C° 0 mm 1 mps 682 mmHg 38%
    11:00 +31°C° 0 mm 2 mps 682 mmHg 27%
    12:00 +31°C° 0 mm 2 mps 682 mmHg 26%
    13:00 +32°C° 0 mm 2 mps 681 mmHg 24%
    14:00 +32°C° 0 mm 2 mps 680 mmHg 23%
    15:00 +31°C° 0 mm 3 mps 680 mmHg 26%
    16:00 +30°C° 0 mm 3 mps 679 mmHg 30%
    17:00 +28°C° 0 mm 3 mps 679 mmHg 34%
    18:00 +26°C° 0 mm 2 mps 679 mmHg 41%
    19:00 +24°C° 0 mm 2 mps 679 mmHg 48%
    20:00 +22°C° 0 mm 1 mps 679 mmHg 55%
    21:00 +21°C° 0 mm 1 mps 679 mmHg 58%
    22:00 +20°C° 0 mm 1 mps 679 mmHg 61%
    23:00 +20°C° 0 mm 1 mps 680 mmHg 63%

    Tomorrow, 21 November, Tuesday

    Time Temperature Precipitation Wind Pressure Humidity
    00:00 +19°C° 0 mm 1 mps 679 mmHg 65%
    01:00 +19°C° 0 mm 1 mps 679 mmHg 66%
    02:00 +19°C° 0 mm 1 mps 678 mmHg 68%
    03:00 +18°C° 0 mm 1 mps 678 mmHg 68%
    04:00 +18°C° 0 mm 1 mps 678 mmHg 69%
    05:00 +18°C° 0 mm 1 mps 678 mmHg 69%
    06:00 +21°C° 0 mm 1 mps 679 mmHg 59%
    07:00 +24°C° 0 mm 1 mps 680 mmHg 49%
    08:00 +26°C° 0 mm 0 mps 680 mmHg 39%
    09:00 +30°C° 0 mm 1 mps 681 mmHg 34%
    10:00 +32°C° 0 mm 1 mps 681 mmHg 28%
    11:00 +35°C° 0 mm 1 mps 681 mmHg 22%
    12:00 +35°C° 0 mm 1 mps 680 mmHg 21%
    13:00 +35°C° 0 mm 1 mps 679 mmHg 20%
    14:00 +35°C° 0 mm 1 mps 678 mmHg 19%
    15:00 +34°C° 0 mm 1 mps 678 mmHg 22%
    16:00 +34°C° 0 mm 2 mps 677 mmHg 26%
    17:00 +31°C° 0 mm 2 mps 676 mmHg 29%
    18:00 +29°C° 0 mm 2 mps 676 mmHg 36%
    19:00 +27°C° 0 mm 2 mps 677 mmHg 43%
    20:00 +24°C° 0 mm 2 mps 677 mmHg 50%
    21:00 +24°C° 0 mm 2 mps 677 mmHg 53%
    22:00 +23°C° 0 mm 1 mps 677 mmHg 56%
    23:00 +22°C° 0 mm 1 mps 677 mmHg 59%

    Day after tomorrow, 22 November, Wednesday

    Time Temperature Precipitation Wind Pressure Humidity
    00:00 +22°C° 0 mm 1 mps 677 mmHg 59%
    01:00 +22°C° 0 mm 1 mps 677 mmHg 60%
    02:00 +21°C° 0 mm 1 mps 676 mmHg 60%
    03:00 +21°C° 0 mm 1 mps 676 mmHg 60%
    04:00 +21°C° 0 mm 1 mps 676 mmHg 60%
    05:00 +21°C° 0 mm 1 mps 676 mmHg 60%
    06:00 +24°C° 0 mm 1 mps 677 mmHg 53%
    07:00 +26°C° 0 mm 1 mps 678 mmHg 46%
    08:00 +29°C° 0 mm 1 mps 679 mmHg 39%
    09:00 +31°C° 0 mm 2 mps 679 mmHg 35%
    10:00 +34°C° 0 mm 2 mps 679 mmHg 31%
    11:00 +36°C° 0 mm 2 mps 679 mmHg 26%
    12:00 +36°C° 0 mm 2 mps 678 mmHg 26%
    13:00 +37°C° 0 mm 2 mps 677 mmHg 25%
    14:00 +37°C° 0 mm 2 mps 677 mmHg 24%
    15:00 +36°C° 0 mm 2 mps 676 mmHg 28%
    16:00 +35°C° 0 mm 2 mps 676 mmHg 31%
    17:00 +32°C° 0 mm 2 mps 675 mmHg 34%
    18:00 +30°C° 0 mm 2 mps 676 mmHg 42%
    19:00 +28°C° 0 mm 2 mps 676 mmHg 50%
    20:00 +26°C° 0 mm 1 mps 676 mmHg 58%
    21:00 +25°C° 0 mm 1 mps 676 mmHg 62%
    22:00 +25°C° 0 mm 1 mps 676 mmHg 66%
    23:00 +24°C° 0 mm 1 mps 677 mmHg 70%

    23 November, Thursday

    Time Temperature Precipitation Wind Pressure Humidity
    00:00 +24°C° 0 mm 1 mps 676 mmHg 73%
    01:00 +23°C° 0 mm 1 mps 676 mmHg 76%
    02:00 +22°C° 0 mm 1 mps 675 mmHg 79%
    03:00 +22°C° 0 mm 1 mps 676 mmHg 81%
    04:00 +22°C° 0 mm 1 mps 676 mmHg 83%
    05:00 +22°C° 0 mm 1 mps 676 mmHg 85%
    06:00 +24°C° 0.1 mm 1 mps 677 mmHg 77%
    07:00 +26°C° 0.1 mm 1 mps 678 mmHg 70%
    08:00 +27°C° 0.1 mm 1 mps 679 mmHg 63%
    09:00 +30°C° 0.1 mm 1 mps 679 mmHg 54%
    10:00 +32°C° 0.1 mm 1 mps 679 mmHg 45%
    11:00 +34°C° 0.1 mm 1 mps 679 mmHg 36%
    12:00 +34°C° 0.1 mm 2 mps 678 mmHg 39%
    13:00 +32°C° 0.1 mm 2 mps 678 mmHg 41%
    14:00 +31°C° 0.1 mm 3 mps 677 mmHg 44%
    15:00 +30°C° 0.4 mm 3 mps 677 mmHg 49%
    16:00 +29°C° 0.4 mm 3 mps 677 mmHg 54%
    17:00 +28°C° 0.4 mm 3 mps 677 mmHg 59%
    18:00 +27°C° 0.1 mm 3 mps 677 mmHg 65%
    19:00 +25°C° 0.1 mm 2 mps 678 mmHg 72%
    20:00 +24°C° 0.1 mm 2 mps 678 mmHg 79%
    21:00 +23°C° 0 mm 2 mps 678 mmHg 81%
    22:00 +23°C° 0 mm 1 mps 678 mmHg 84%
    23:00 +22°C° 0 mm 1 mps 678 mmHg 87%

    24 November, Friday

    Time Temperature Precipitation Wind Pressure Humidity
    00:00 +22°C° 0 mm 1 mps 678 mmHg 88%
    01:00 +21°C° 0 mm 1 mps 677 mmHg 90%
    02:00 +21°C° 0 mm 1 mps 677 mmHg 92%
    03:00 +21°C° 0 mm 1 mps 678 mmHg 92%
    04:00 +20°C° 0 mm 1 mps 678 mmHg 92%
    05:00 +20°C° 0 mm 1 mps 678 mmHg 92%
    06:00 +22°C° 0 mm 1 mps 679 mmHg 84%
    07:00 +23°C° 0 mm 1 mps 680 mmHg 75%
    08:00 +25°C° 0 mm 2 mps 680 mmHg 66%
    09:00 +26°C° 0 mm 2 mps 680 mmHg 60%
    10:00 +28°C° 0 mm 2 mps 680 mmHg 54%
    11:00 +30°C° 0 mm 2 mps 680 mmHg 48%
    12:00 +30°C° 0.1 mm 2 mps 679 mmHg 47%
    13:00 +30°C° 0.1 mm 2 mps 679 mmHg 46%
    14:00 +31°C° 0.1 mm 2 mps 678 mmHg 45%
    15:00 +30°C° 0.1 mm 2 mps 678 mmHg 49%
    16:00 +29°C° 0.1 mm 2 mps 678 mmHg 52%
    17:00 +28°C° 0.1 mm 3 mps 678 mmHg 56%
    18:00 +26°C° 0 mm 2 mps 678 mmHg 63%
    19:00 +25°C° 0 mm 2 mps 678 mmHg 71%
    20:00 +23°C° 0 mm 1 mps 678 mmHg 78%
    21:00 +23°C° 0 mm 1 mps 678 mmHg 81%
    22:00 +22°C° 0 mm 1 mps 678 mmHg 83%
    23:00 +22°C° 0 mm 1 mps 678 mmHg 85%

    25 November, Saturday

    Time Temperature Precipitation Wind Pressure Humidity
    00:00 +22°C° 0 mm 1 mps 677 mmHg 86%
    01:00 +21°C° 0 mm 1 mps 677 mmHg 87%
    02:00 +21°C° 0 mm 1 mps 677 mmHg 87%
    03:00 +21°C° 0 mm 1 mps 677 mmHg 87%
    04:00 +21°C° 0 mm 1 mps 677 mmHg 87%
    05:00 +21°C° 0 mm 1 mps 678 mmHg 86%
    06:00 +22°C° 0 mm 1 mps 678 mmHg 80%
    07:00 +24°C° 0 mm 1 mps 679 mmHg 73%
    08:00 +25°C° 0 mm 1 mps 680 mmHg 66%
    09:00 +27°C° 0.1 mm 1 mps 680 mmHg 61%
    10:00 +28°C° 0.1 mm 2 mps 679 mmHg 56%
    11:00 +29°C° 0.1 mm 2 mps 679 mmHg 51%
    12:00 +29°C° 0.2 mm 2 mps 679 mmHg 50%
    13:00 +29°C° 0.2 mm 2 mps 678 mmHg 50%
    14:00 +29°C° 0.2 mm 2 mps 677 mmHg 50%
    15:00 +29°C° 0.3 mm 2 mps 677 mmHg 53%
    16:00 +28°C° 0.3 mm 2 mps 677 mmHg 57%
    17:00 +27°C° 0.3 mm 2 mps 677 mmHg 61%
    18:00 +26°C° 0.3 mm 2 mps 678 mmHg 67%
    19:00 +25°C° 0.3 mm 2 mps 678 mmHg 73%
    20:00 +23°C° 0.3 mm 1 mps 678 mmHg 80%
    21:00 +23°C° 0.6 mm 1 mps 678 mmHg 82%
    22:00 +23°C° 0.6 mm 1 mps 679 mmHg 85%
    23:00 +22°C° 0.6 mm 1 mps 679 mmHg 88%
    Show more